Location: Newark
(48.2308°N, 120.8549°W)
Time: 14:15:57
(UTC+00:00)

Transit 2A Rocket - Pass Details

Date: 30 May 2020
Orbit: 584 x 919 km, 66.7° (Epoch: 07 July)

Event Time Altitude Azimuth Distance (km) Brightness Sun altitude
Rises 07:52:53 0° 241° (WSW) 3,113 - -19.9°
Exits shadow 07:54:41 - 247° (WSW) 2,458 7.4 -19.9°
Reaches altitude 10° 07:55:17 10° 249° (WSW) 2,250 7.2 -19.9°
Maximum altitude 08:00:06 38° 318° (NW) 1,198 6.4 -19.9°
Drops below altitude 10° 08:05:23 10° 26° (NNE) 2,470 8.6 -19.9°
Sets 08:08:09 0° 34° (NE) 3,456 9.3 -19.9°
